Regional Weather Roundup
Issued by NWS

Home | Current Version | Previous Version | Text Only | Print | Product List | Glossary Off
Versions: 1 2 3 4 5 6 7 8 9 10 11 12 13 14 15 16 17 18 19 20 21 22 23 24 25 26 27 28 29 30 31 32 33 34 35 36 37 38 39 40 41 42 43 44 45 46 47 48 49 50

491
ASUS43 KLOT 271403
RWRIL

ILLINOIS REGIONAL WEATHER ROUNDUP
NATIONAL WEATHER SERVICE CHICAGO/ROMEOVILLE IL
900 AM CDT SUN MAY 27 2018

NOTE: "FAIR" INDICATES FEW OR NO CLOUDS BELOW 12,000 FEET WITH NO
SIGNIFICANT WEATHER AND/OR OBSTRUCTIONS TO VISIBILITY.

* THESE STATIONS ARE NOT UNDER NWS QUALITY CONTROL. THEY ALSO MAY NOT
  REPORT WEATHER SUCH AS PRECIPITATION OR FOG.

ILZ001-002-007-009-015-016-024-271500-
NORTHWEST ILLINOIS

CITY           SKY/WX    TMP DP  RH WIND       PRES   REMARKS
MOLINE         FAIR      80  69  69 CALM      29.85R HX  83
STERLING*        N/A    N/A N/A N/A MISG        N/A
SAVANNA*       FAIR      79  69  72 SE3       29.86S HX  82
$$

ILZ003-004-008-010-011-017-018-271500-
NORTH CENTRAL ILLINOIS

CITY           SKY/WX    TMP DP  RH WIND       PRES   REMARKS
ROCKFORD       FAIR      80  70  71 SW5       29.88R HX  83
FREEPORT*      FAIR      79  69  71 S5        29.89S HX  82
ROCHELLE*      FAIR      81  69  67 W3        29.88S HX  84
DE KALB*       FAIR      81  72  75 CALM      29.89R HX  85
$$

ILZ005-006-012>014-019>023-271500-
NORTHEAST ILLINOIS

CITY           SKY/WX    TMP DP  RH WIND       PRES   REMARKS
CHICAGO-OHARE  FAIR      83  68  60 SW3       29.87R HX  86
CHICAGO-MIDWAY FAIR      84  71  65 SW5       29.87R HX  89
AURORA         FAIR      80  71  74 S5        29.88R HX  84
LANSING*       FAIR      83  71  67 CALM      29.88S HX  87
JOLIET*        FAIR      82  71  70 CALM      29.88S HX  86
WAUKEGAN       FAIR      84  67  56 CALM      29.86S HX  86
DUPAGE AIRPORT FAIR      81  72  74 S5        29.87S HX  85
KANKAKEE*      FAIR      82  69  63 CALM      29.89S HX  86
WHEELING       FAIR      84  69  60 CALM      29.88S HX  88
MORRIS*        FAIR      82  67  60 CALM      29.87S HX  85
$$

LMZ740>746-271500-
SOUTHERN LAKE MICHIGAN

STATION/POSITION SKY/WX   TEMP    WIND        PRES    VSBY  WAVE
                          AIR SEA DIR/SP/G                  HT/PER
                          (F)     (DEG/KT/KT) (MB)    (MI)  (FT/S)
SOUTHERN BUOY              52 40  180/  6/  8 1011.7R         0
WILMETTE HARBOR            67 58  110/  4/  6   N/A           0
HARRISON CRIB              80     150/  1/  2   N/A
BURNHAM HARBOR                    280/  4/  7   N/A
CALUMET HARBOR             82     220/  2/  5 1011.2R
BURNS HARBOR               77        CALM     1012.5R
MICHIGAN CITY              78     220/  4/  4   N/A
MICHIGAN CITY 6N           72 64  220/  2/  2   N/A           0
ST. JOSEPH                 68 65  260/  2/  4 1011.9R         0
$$

ILZ025>027-034>036-040-047-049-050-058-095>099-271500-
WEST-CENTRAL ILLINOIS

CITY           SKY/WX    TMP DP  RH WIND       PRES   REMARKS
QUINCY         SUNNY     82  71  69 SW8       29.88R HX  86
GALESBURG*     FAIR      80  70  73 SW5       29.89R HX  83
MACOMB*        SUNNY     78  72  80 W6        29.89R HX  81
JACKSONVILLE*  SUNNY     81  73  76 SW7       29.88S HX  85
PITTSFIELD*    SUNNY     82  74  77 S5        29.90R HX  88
$$

ILZ028>032-037-038-041>044-048-051>054-059>061-271500-
CENTRAL ILLINOIS

CITY           SKY/WX    TMP DP  RH WIND       PRES   REMARKS
BLOOMINGTON    FAIR      83  72  69 S5        29.90R HX  88
DECATUR        FAIR      82  69  64 W6        29.89S HX  85
PEORIA         FAIR      80  73  79 S3        29.87R HX  84
LACON*         FAIR      80  70  70 CALM      29.86S HX  84
LINCOLN*       FAIR      82  73  74 CALM      29.89R HX  87
SPRINGFIELD    FAIR      83  73  72 SW6       29.88S HX  89
TAYLORVILLE    NOT AVBL
$$

ILZ033-039-045-046-055>057-062-063-271500-
EAST-CENTRAL ILLINOIS

CITY           SKY/WX    TMP DP  RH WIND       PRES   REMARKS
CHAMPAIGN      FAIR      81  72  74 SW5       29.90S HX  85
DANVILLE*      FAIR      81  72  73 CALM      29.88S HX  86
RANTOUL*       FAIR      83  75  77 SW5       29.90S HX  89
MATTOON        FAIR      81  73  76 S6        29.90R HX  86
$$

ILZ079-100>102-271500-
SOUTHWEST ILLINOIS

CITY           SKY/WX    TMP DP  RH WIND       PRES   REMARKS
ALTON          SUNNY     81  73  78 SW5       29.90S HX  85
BELLEVILLE     SUNNY     81  72  72 CALM        N/A  HX  86
CAHOKIA*       SUNNY     80  71  74 W5        29.89S HX  84
SPARTA*        SUNNY     80  74  81 W5        29.92S HX  85
$$

ILZ064>066-069>071-074>076-080>082-084>086-088>090-092>094-271500-
SOUTH-CENTRAL ILLINOIS

CITY           SKY/WX    TMP DP  RH WIND       PRES   REMARKS
CARBONDALE     FAIR      80  72  76 SW5       29.91S HX  84
CAIRO*         FAIR      79  73  82 CALM      29.91S HX  82
EFFINGHAM*     FAIR      82  69  64 CALM      29.92S HX  85
MARION         MOSUNNY   79  73  83 SW7       29.92S HX  82
MT. VERNON     FAIR      82  73  74 MISG      29.91S HX  87
CENTRALIA*     MOSUNNY   82  74  75 SW3       29.90S HX  88
SALEM*         FAIR      81  72  74 W5        29.91R HX  85
METROPOLIS*    FAIR      80  73  78 CALM      29.93S HX  85
$$

ILZ067-068-072-073-078-083-087-091-271500-
SOUTHEAST ILLINOIS

CITY           SKY/WX    TMP DP  RH WIND       PRES   REMARKS
LAWRENCEVILLE  FAIR      83  69  62 S6        29.91S HX  86
FLORA*         FAIR      82  73  74 CALM      29.91S HX  86
FAIRFIELD*     FAIR      81  71  71 CALM      29.90S HX  85
HARRISBURG*    FAIR      80  74  83 SW3       29.92S HX  84
ROBINSON*      FAIR      81  72  75 SW5       29.92R HX  85
CARMI*         FAIR      82  72  72 W5        29.91S HX  87
$$

ABBREVIATIONS USED IN REMARKS
   TC - TEMPERATURE IN CELSIUS
  WCI - WIND CHILL INDEX
   HX - HEAT INDEX
  VSB - VISIBILITY
$$





USA.gov is the U.S. government's official web portal to all federal, state and local government web resources and services.